When you browse on this site, cookies collect data to enhance your experience and personalize the content and advertising you see.
Visit our Privacy Policy to learn more. By continuing to use the site, you agree to this use of cookies and data.
  • In Schweiz
  • Länderverzeichnis
  • Für 7 Tage
  • Wassertemperatur
  • Satellitenkarten
  • Wetterkarte
  • Widgets
  • user-avatar
    Anmelden

    Stündliche Wetter Ayia Napa

    Heute, 22 Juli, Montag

    Zeit Temperatur Niederschläge Wind Luftdruck Luftfeuchtigkeit
    00:00 +30°C° 0 mm 5 m/S 752 mmHg 45%
    01:00 +30°C° 0 mm 5 m/S 752 mmHg 42%
    02:00 +30°C° 0 mm 4 m/S 752 mmHg 37%
    03:00 +30°C° 0 mm 4 m/S 752 mmHg 42%
    04:00 +29°C° 0 mm 3 m/S 751 mmHg 47%
    05:00 +29°C° 0 mm 2 m/S 751 mmHg 52%
    06:00 +30°C° 0 mm 2 m/S 752 mmHg 47%
    07:00 +32°C° 0 mm 2 m/S 752 mmHg 43%
    08:00 +35°C° 0 mm 2 m/S 752 mmHg 35%
    09:00 +36°C° 0 mm 2 m/S 752 mmHg 32%
    10:00 +36°C° 0 mm 2 m/S 752 mmHg 29%
    11:00 +37°C° 0 mm 2 m/S 752 mmHg 25%
    12:00 +38°C° 0 mm 3 m/S 752 mmHg 24%
    13:00 +38°C° 0 mm 3 m/S 752 mmHg 23%
    14:00 +38°C° 0 mm 4 m/S 752 mmHg 22%
    15:00 +39°C° 0 mm 5 m/S 752 mmHg 24%
    16:00 +37°C° 0 mm 5 m/S 751 mmHg 26%
    17:00 +38°C° 0 mm 6 m/S 751 mmHg 28%
    18:00 +35°C° 0 mm 6 m/S 751 mmHg 34%
    19:00 +33°C° 0 mm 6 m/S 751 mmHg 40%
    20:00 +32°C° 0 mm 6 m/S 751 mmHg 46%
    21:00 +30°C° 0 mm 5 m/S 751 mmHg 44%
    22:00 +30°C° 0 mm 5 m/S 751 mmHg 43%
    23:00 +30°C° 0 mm 4 m/S 751 mmHg 42%

    Morgen, 23 Juli, Dienstag

    Zeit Temperatur Niederschläge Wind Luftdruck Luftfeuchtigkeit
    00:00 +30°C° 0 mm 4 m/S 751 mmHg 43%
    01:00 +29°C° 0 mm 3 m/S 750 mmHg 45%
    02:00 +29°C° 0 mm 3 m/S 750 mmHg 47%
    03:00 +29°C° 0 mm 2 m/S 750 mmHg 51%
    04:00 +28°C° 0 mm 2 m/S 750 mmHg 56%
    05:00 +27°C° 0 mm 2 m/S 750 mmHg 61%
    06:00 +29°C° 0 mm 1 m/S 750 mmHg 56%
    07:00 +31°C° 0 mm 1 m/S 750 mmHg 52%
    08:00 +32°C° 0 mm 1 m/S 750 mmHg 47%
    09:00 +33°C° 0 mm 1 m/S 750 mmHg 43%
    10:00 +35°C° 0 mm 2 m/S 751 mmHg 38%
    11:00 +36°C° 0 mm 3 m/S 751 mmHg 34%
    12:00 +37°C° 0 mm 3 m/S 751 mmHg 32%
    13:00 +37°C° 0 mm 3 m/S 751 mmHg 30%
    14:00 +38°C° 0 mm 2 m/S 750 mmHg 28%
    15:00 +37°C° 0 mm 3 m/S 750 mmHg 30%
    16:00 +37°C° 0 mm 4 m/S 750 mmHg 32%
    17:00 +36°C° 0 mm 4 m/S 750 mmHg 34%
    18:00 +35°C° 0 mm 5 m/S 750 mmHg 39%
    19:00 +33°C° 0 mm 5 m/S 750 mmHg 44%
    20:00 +32°C° 0 mm 5 m/S 750 mmHg 49%
    21:00 +30°C° 0 mm 5 m/S 750 mmHg 53%
    22:00 +30°C° 0 mm 4 m/S 750 mmHg 56%
    23:00 +29°C° 0 mm 4 m/S 751 mmHg 60%

    übermorgen, 24 Juli, Mittwoch

    Zeit Temperatur Niederschläge Wind Luftdruck Luftfeuchtigkeit
    00:00 +29°C° 0 mm 4 m/S 750 mmHg 59%
    01:00 +29°C° 0 mm 3 m/S 750 mmHg 58%
    02:00 +29°C° 0 mm 3 m/S 750 mmHg 57%
    03:00 +28°C° 0 mm 3 m/S 750 mmHg 58%
    04:00 +28°C° 0 mm 3 m/S 750 mmHg 60%
    05:00 +27°C° 0 mm 2 m/S 750 mmHg 61%
    06:00 +29°C° 0 mm 2 m/S 750 mmHg 55%
    07:00 +30°C° 0 mm 2 m/S 750 mmHg 49%
    08:00 +32°C° 0 mm 2 m/S 750 mmHg 43%
    09:00 +34°C° 0 mm 3 m/S 751 mmHg 41%
    10:00 +35°C° 0 mm 4 m/S 751 mmHg 38%
    11:00 +36°C° 0 mm 4 m/S 751 mmHg 35%
    12:00 +37°C° 0 mm 5 m/S 751 mmHg 34%
    13:00 +37°C° 0 mm 5 m/S 751 mmHg 33%
    14:00 +37°C° 0 mm 5 m/S 751 mmHg 32%
    15:00 +38°C° 0 mm 6 m/S 751 mmHg 33%
    16:00 +38°C° 0 mm 6 m/S 751 mmHg 33%
    17:00 +36°C° 0 mm 7 m/S 751 mmHg 34%
    18:00 +35°C° 0 mm 6 m/S 751 mmHg 40%
    19:00 +33°C° 0 mm 6 m/S 751 mmHg 46%
    20:00 +30°C° 0 mm 5 m/S 751 mmHg 51%
    21:00 +30°C° 0 mm 4 m/S 751 mmHg 55%
    22:00 +29°C° 0 mm 3 m/S 751 mmHg 59%
    23:00 +28°C° 0 mm 2 m/S 752 mmHg 63%

    25 Juli, Donnerstag

    Zeit Temperatur Niederschläge Wind Luftdruck Luftfeuchtigkeit
    00:00 +28°C° 0 mm 2 m/S 751 mmHg 63%
    01:00 +27°C° 0 mm 2 m/S 751 mmHg 63%
    02:00 +27°C° 0 mm 2 m/S 751 mmHg 64%
    03:00 +26°C° 0 mm 2 m/S 751 mmHg 67%
    04:00 +26°C° 0 mm 2 m/S 751 mmHg 71%
    05:00 +25°C° 0 mm 2 m/S 752 mmHg 75%
    06:00 +27°C° 0 mm 2 m/S 752 mmHg 65%
    07:00 +29°C° 0 mm 2 m/S 752 mmHg 56%
    08:00 +32°C° 0 mm 2 m/S 753 mmHg 46%
    09:00 +34°C° 0 mm 3 m/S 753 mmHg 42%
    10:00 +36°C° 0 mm 4 m/S 753 mmHg 37%
    11:00 +37°C° 0 mm 5 m/S 753 mmHg 33%
    12:00 +37°C° 0 mm 5 m/S 753 mmHg 32%
    13:00 +38°C° 0 mm 6 m/S 753 mmHg 31%
    14:00 +39°C° 0 mm 6 m/S 753 mmHg 31%
    15:00 +38°C° 0 mm 6 m/S 752 mmHg 34%
    16:00 +36°C° 0 mm 6 m/S 752 mmHg 38%
    17:00 +35°C° 0 mm 6 m/S 752 mmHg 42%
    18:00 +34°C° 0 mm 5 m/S 752 mmHg 48%
    19:00 +32°C° 0 mm 5 m/S 752 mmHg 55%
    20:00 +30°C° 0 mm 4 m/S 752 mmHg 61%
    21:00 +29°C° 0 mm 4 m/S 752 mmHg 61%
    22:00 +29°C° 0 mm 3 m/S 752 mmHg 60%
    23:00 +29°C° 0 mm 3 m/S 752 mmHg 60%

    26 Juli, Freitag

    Zeit Temperatur Niederschläge Wind Luftdruck Luftfeuchtigkeit
    00:00 +29°C° 0 mm 3 m/S 752 mmHg 59%
    01:00 +28°C° 0 mm 2 m/S 752 mmHg 57%
    02:00 +28°C° 0 mm 2 m/S 752 mmHg 55%
    03:00 +28°C° 0 mm 2 m/S 752 mmHg 57%
    04:00 +27°C° 0 mm 2 m/S 752 mmHg 59%
    05:00 +27°C° 0 mm 2 m/S 752 mmHg 60%
    06:00 +29°C° 0 mm 2 m/S 752 mmHg 55%
    07:00 +31°C° 0 mm 2 m/S 752 mmHg 49%
    08:00 +34°C° 0 mm 2 m/S 752 mmHg 44%
    09:00 +35°C° 0 mm 2 m/S 752 mmHg 40%
    10:00 +36°C° 0 mm 3 m/S 752 mmHg 36%
    11:00 +37°C° 0 mm 3 m/S 752 mmHg 33%
    12:00 +38°C° 0 mm 4 m/S 752 mmHg 30%
    13:00 +40°C° 0 mm 4 m/S 751 mmHg 28%
    14:00 +40°C° 0 mm 5 m/S 751 mmHg 25%
    15:00 +39°C° 0 mm 5 m/S 751 mmHg 30%
    16:00 +37°C° 0 mm 5 m/S 751 mmHg 35%
    17:00 +36°C° 0 mm 6 m/S 750 mmHg 40%
    18:00 +34°C° 0 mm 5 m/S 751 mmHg 44%
    19:00 +33°C° 0 mm 4 m/S 751 mmHg 49%
    20:00 +30°C° 0 mm 4 m/S 751 mmHg 53%
    21:00 +30°C° 0 mm 3 m/S 751 mmHg 54%
    22:00 +29°C° 0 mm 3 m/S 751 mmHg 54%
    23:00 +29°C° 0 mm 3 m/S 750 mmHg 55%

    27 Juli, Samstag

    Zeit Temperatur Niederschläge Wind Luftdruck Luftfeuchtigkeit
    00:00 +29°C° 0 mm 3 m/S 750 mmHg 51%
    01:00 +29°C° 0 mm 3 m/S 750 mmHg 48%
    02:00 +29°C° 0 mm 3 m/S 750 mmHg 44%
    03:00 +28°C° 0 mm 2 m/S 750 mmHg 51%
    04:00 +27°C° 0 mm 2 m/S 749 mmHg 58%
    05:00 +26°C° 0 mm 2 m/S 749 mmHg 65%
    06:00 +29°C° 0 mm 2 m/S 749 mmHg 57%
    07:00 +31°C° 0 mm 2 m/S 749 mmHg 49%
    08:00 +33°C° 0 mm 1 m/S 749 mmHg 41%
    09:00 +35°C° 0 mm 2 m/S 750 mmHg 38%
    10:00 +36°C° 0 mm 3 m/S 750 mmHg 35%
    11:00 +38°C° 0 mm 4 m/S 750 mmHg 32%
    12:00 +38°C° 0 mm 4 m/S 749 mmHg 31%
    13:00 +39°C° 0 mm 5 m/S 749 mmHg 30%
    14:00 +40°C° 0 mm 6 m/S 749 mmHg 28%
    15:00 +39°C° 0 mm 6 m/S 749 mmHg 30%
    16:00 +39°C° 0 mm 6 m/S 748 mmHg 32%
    17:00 +38°C° 0 mm 7 m/S 748 mmHg 34%
    18:00 +35°C° 0 mm 6 m/S 748 mmHg 43%
    19:00 +33°C° 0 mm 5 m/S 748 mmHg 52%
    20:00 +30°C° 0 mm 4 m/S 748 mmHg 61%
    21:00 +30°C° 0 mm 3 m/S 748 mmHg 59%
    22:00 +29°C° 0 mm 3 m/S 748 mmHg 56%
    23:00 +29°C° 0 mm 2 m/S 748 mmHg 54%
    Mehr zeigen